Dewpoint
8 8 7 5 -5 -0 2 2 3 2 2 3 3 4 3 1 2 2 2 3 3 2 -2 0 3 5 3 1 2 2 3 3 6 5 5 3 3 3 2 4 3 2 2 -1
6 8 7 4 -5 -0 2 3 3 2 3 3 2 2 2 2 2 2 3 2 1 1 1 2 3 3 2 2 2 3 2 4 6 5 3 2 4 3 2 2 3 3 2 -0
5 8 7 4 -7 -0 2 1 3 2 3 3 3 2 3 3 1 1 1 2 2 1 1 0 2 3 2 2 1 1 1 2 1 3 4 3 4 3 2 2 3 3 3 -0
5 8 6 -0 -8 1 2 1 1 1 3 2 2 2 2 3 2 1 -0 0 2 1 2 1 3 2 3 2 1 1 2 3 1 2 2 2 2 2 2 3 2 3 1 1
5 7 4 -1 -8 2 3 2 2 1 1 1 2 2 2 2 3 2 1 1 1 1 3 3 2 1 1 2 2 2 1 2 1 1 0 1 2 2 1 2 2 2 1 1
4 7 5 -2 -3 2 3 1 0 1 1 1 1 2 1 3 2 2 1 1 3 3 2 0 -0 -0 0 1 2 2 2 1 1 2 -1 -1 1 0 0 1 1 2 3 1
3 6 5 -3 -3 1 0 -1 -0 -0 2 1 2 1 2 2 2 2 0 1 2 1 0 -1 -1 -0 -0 0 0 1 2 2 0 0 -0 -0 -2 -3 -3 1 1 0 0 -1
3 5 6 -4 -6 0 -1 -2 -1 -1 0 -0 0 1 2 1 0 0 -0 -0 0 1 1 1 1 1 1 0 -1 -1 1 2 2 2 1 -1 -0 -1 -1 0 2 -2 -2 -3
3 2 1 -6 -7 -3 -1 -4 -2 -2 -1 -2 -2 1 2 2 1 0 -2 0 0 2 2 2 3 3 1 2 2 -2 -1 -1 1 1 2 2 -1 -2 -2 -2 3 -4 -3 -3
2 2 0 -6 -7 -5 -4 -5 -2 -2 -3 -3 -2 -0 1 0 0 0 -1 -0 1 2 2 2 2 2 -0 3 2 2 1 1 1 1 1 1 -3 -4 -1 1 -0 -3 -2 -2
2 1 -2 -6 -7 -6 -5 -6 -3 -3 -3 -3 -3 -2 -1 -2 -1 -0 -2 -0 0 1 2 2 2 1 -0 1 1 1 1 1 2 2 4 3 -5 -3 0 -2 -2 -2 -2 -2
2 -0 -3 -5 -6 -6 -4 -6 -3 -4 -3 -3 -3 -2 -2 -2 -2 -2 -1 -1 0 1 1 1 0 1 0 -0 2 -2 1 -0 1 0 0 -4 -4 -2 -2 -2 -2 -2 -2 -2
2 -0 -4 -7 -7 -6 -6 -4 -4 -4 -4 -4 -5 -5 -5 -4 -3 -2 -1 -1 -1 -0 -0 -0 -0 1 -0 0 0 -0 -1 -4 -0 -1 -3 -4 -2 -2 -2 -2 -2 -2 -2 -2
1 -0 -5 -7 -6 -6 -5 -4 -4 -5 -5 -4 -4 -4 -5 -6 -6 -3 -2 -2 -2 -1 -1 -1 -1 0 -1 -1 -1 -1 -2 -5 -4 -4 -3 -3 -2 -2 -3 -3 -4 -4 -3 -3
0 -0 -2 -7 -6 -7 -6 -5 -6 -6 -6 -3 -3 -3 -3 -4 -6 -4 -3 -3 -3 -3 -3 -3 -2 -3 -4 -5 -6 -4 -5 -5 -4 -5 -2 -3 -2 -2 -3 -5 -5 -6 -4 -4
-0 -1 -2 -6 -7 -6 -6 -5 -5 -5 -7 -4 -3 -3 -3 -3 -5 -4 -4 -4 -4 -3 -3 -3 -4 -4 -3 -4 -4 -6 -4 -4 -4 -2 -2 -2 -2 -5 -4 -5 -5 -7 -7 -7
-0 -2 -4 -6 -5 -5 -7 -7 -6 -7 -10 -6 -3 -3 -3 -2 -3 -3 -5 -6 -4 -5 -3 -3 -4 -4 -3 -3 -3 -5 -4 -2 -2 -2 -4 -4 -3 -5 -5 -6 -7 -8 -8 -8
-2 -2 -5 -4 -5 -5 -5 -5 -7 -10 -11 -9 -7 -6 -4 -2 -3 -3 -2 -3 -3 -3 -3 -3 -4 -4 -3 -2 -4 -4 -3 -3 -4 -4 -5 -6 -7 -8 -10 -11 -11 -10 -10 -9
-3 -4 -5 -6 -6 -6 -7 -13 -16 -18 -16 -3 -5 -5 -6 -3 -3 -3 -3 -2 -3 -4 -3 -3 -3 -3 -3 -4 -3 -4 -4 -5 -4 -7 -11 -11 -12 -12 -13 -12 -11 -9 -11 -12
-4 -5 -5 -6 -6 -6 -9 -9 -15 -16 -13 -10 -5 -4 -6 -3 -3 -4 -3 -3 -1 -4 -3 -4 -3 -2 -3 -5 -4 -4 -6 -11 -12 -14 -14 -14 -15 -15 -15 -14 -12 -10 -13 -18
-5 -5 -6 -6 -7 -9 -11 -9 -8 -6 -5 -5 -3 -4 -4 -2 -4 -4 -4 -3 -3 -2 -2 -2 -2 -2 -4 -5 -7 -8 -10 -11 -13 -14 -14 -14 -14 -14 -13 -13 -12 -11 -17 -11
-6 -7 -6 -8 -11 -11 -8 -5 -5 -5 -5 -3 -5 -3 -3 -3 -3 -4 -4 -4 -4 -2 -3 -3 -2 -2 -6 -6 -8 -10 -13 -14 -14 -14 -14 -14 -14 -13 -13 -11 -10 -15 -8 -9
-6 -8 -10 -8 -10 -8 -14 -7 -6 -5 -3 -4 -4 -5 -4 -4 -4 -4 -5 -5 -4 -3 -1 -3 -4 -5 -8 -11 -13 -13 -13 -14 -14 -14 -13 -13 -13 -13 -12 -11 -14 -13 -10 -10
-13 -13 -10 -10 -10 -6 -3 -5 -6 -3 -5 -5 -5 -3 -4 -4 -4 -5 -7 -3 -4 -5 -5 -5 -7 -7 -10 -12 -11 -11 -12 -14 -14 -13 -12 -12 -12 -12 -13 -14 -13 -11 -11 -11
-11 -11 -13 -6 -4 -3 -3 -3 -3 -4 -6 -8 -5 -4 -5 -6 -6 -5 -6 -6 -7 -6 -5 -6 -5 -9 -11 -10 -8 -11 -13 -14 -14 -13 -12 -12 -13 -12 -12 -11 -11 -11 -12 -12
-11 -8 -6 -4 -4 -3 -4 -4 -4 -5 -7 -8 -9 -6 -7 -5 -6 -7 -7 -7 -7 -7 -7 -3 -7 -11 -11 -8 -11 -14 -13 -13 -13 -12 -12 -12 -13 -13 -14 -16 -16 -16 -15 -15
-7 -5 -6 -4 -5 -4 -5 -5 -6 -7 -9 -6 -7 -9 -8 -6 -7 -6 -7 -7 -8 -4 -4 -5 -6 -9 -10 -13 -14 -13 -14 -14 -14 -14 -14 -15 -17 -17 -17 -17 -18 -16 -16 -15
Wind_Speed
40 31 30 23 23 29 26 15 3 10 12 3 4 2 3 5 5 3 1 0 2 1 2 6 4 3 2 3 2 2 2 4 3 2 5 4 0 1 1 3 3 1 3 3
41 28 30 24 28 35 28 16 7 10 6 3 3 3 3 3 5 2 4 2 1 2 3 4 6 4 5 7 5 2 3 2 3 3 5 2 2 2 1 2 2 2 4 3
38 29 31 24 30 34 19 9 4 5 8 5 2 5 4 3 4 4 4 3 3 1 3 5 4 3 2 5 3 4 3 3 5 5 3 5 4 4 4 4 2 1 4 2
42 30 34 27 31 37 18 7 5 8 6 5 5 1 8 6 4 4 6 3 5 1 3 5 4 4 3 4 3 4 3 3 3 3 4 3 2 5 7 6 5 5 3 2
45 35 33 32 33 37 20 10 5 11 7 8 6 1 4 7 4 3 4 4 4 8 4 4 6 5 2 2 0 2 3 1 2 3 3 3 1 3 4 7 4 5 4 5
42 34 33 35 42 44 14 10 9 7 11 5 5 4 3 7 8 4 9 8 7 7 2 8 12 9 6 5 5 3 3 4 3 2 3 3 4 5 4 1 2 7 7 2
45 37 30 39 43 43 12 18 13 4 3 6 5 6 8 7 2 5 4 10 5 4 9 8 11 11 10 9 5 4 4 3 2 2 2 1 4 1 2 8 6 7 8 4
38 35 29 37 38 43 16 21 12 4 3 4 5 10 6 14 16 5 5 4 8 12 5 4 4 3 3 4 5 5 3 4 2 3 2 2 2 1 2 1 2 5 4 6
30 31 31 32 32 39 24 18 15 4 10 2 1 8 13 5 4 3 3 5 10 4 2 2 4 3 4 2 1 3 2 3 3 2 2 3 1 3 6 3 1 8 11 10
37 31 30 29 27 38 29 21 12 8 9 5 6 5 5 5 4 4 4 4 3 1 2 2 2 1 4 4 5 3 1 2 3 1 1 1 3 10 5 3 2 10 13 13
33 29 29 26 27 38 31 18 13 12 9 11 7 8 5 7 6 4 6 4 1 2 2 2 1 2 3 3 6 5 5 4 3 1 2 3 7 3 1 4 5 7 10 12
28 29 25 24 26 32 29 21 14 10 12 12 14 14 10 10 8 10 4 2 2 2 3 1 2 2 1 4 3 1 2 3 4 3 4 4 7 19 12 7 3 7 9 9
29 26 25 22 23 27 26 26 21 16 22 12 7 10 9 7 8 8 4 3 4 2 3 4 2 3 2 3 3 3 1 2 3 4 3 9 18 12 8 7 7 6 9 13
30 28 25 22 25 25 22 27 22 16 13 7 6 5 7 6 5 5 5 8 8 8 4 3 2 2 1 2 2 3 3 4 4 3 3 17 9 7 5 5 6 7 10 9
28 26 24 23 25 22 22 26 21 20 2 7 9 10 10 8 7 8 10 11 12 5 3 3 1 2 2 2 2 2 5 5 4 4 9 2 2 3 2 8 9 11 12 13
27 24 21 23 22 23 27 11 13 8 18 10 3 5 7 10 9 9 9 9 7 5 4 2 2 1 1 2 2 1 5 6 5 7 5 2 3 2 4 9 10 12 13 14
26 24 21 24 29 29 12 8 19 21 10 7 6 3 4 8 7 8 8 6 5 4 3 2 2 1 0 2 3 6 9 7 5 4 1 3 2 4 8 10 11 13 15 16
28 26 31 30 20 11 15 27 25 12 7 6 4 1 2 3 3 3 3 3 3 4 2 2 2 0 1 2 4 13 12 7 4 4 3 3 5 7 10 12 14 17 18 19
31 39 33 18 15 15 19 17 13 9 5 7 4 4 3 6 4 3 3 2 2 2 2 0 1 1 2 4 8 13 10 5 4 1 2 4 7 11 13 15 16 18 21 22
43 35 10 6 12 26 18 4 3 3 5 5 4 6 2 6 5 2 3 2 2 1 1 1 0 3 2 7 13 11 7 5 3 3 6 10 13 15 17 18 19 19 21 24
34 10 4 22 30 9 3 3 4 2 4 4 5 6 5 4 3 3 2 2 0 2 1 1 2 2 1 9 9 7 5 3 3 6 8 10 14 18 19 20 20 20 19 17
16 10 25 19 5 3 5 2 2 3 4 5 7 6 7 6 4 4 4 2 1 2 2 2 2 2 11 9 8 5 2 2 5 8 11 13 15 16 19 20 19 17 17 22
31 10 7 4 2 5 6 5 2 2 8 10 10 4 5 5 4 4 3 3 2 5 1 3 3 11 11 9 7 2 3 8 11 13 14 15 16 17 17 18 18 18 24 26
5 7 4 4 2 4 3 3 5 6 15 26 21 9 5 4 2 3 4 2 4 2 1 4 3 16 14 9 4 5 9 13 14 14 16 17 19 19 18 18 19 24 28 32
3 4 4 3 5 6 10 15 13 14 30 20 15 9 5 2 3 1 3 3 1 5 4 3 10 16 12 7 6 10 13 15 16 16 16 17 17 19 23 23 26 28 32 33
3 5 6 8 7 3 9 20 24 29 21 13 8 4 4 1 4 3 4 6 5 4 3 5 13 13 10 8 10 12 12 11 11 11 14 17 21 24 28 30 29 28 27 30
4 5 12 4 12 8 18 24 22 24 9 3 4 4 3 3 3 0 3 5 3 6 9 10 10 9 9 11 10 7 8 9 11 14 17 22 23 22 22 26 28 26 28 30
Wind_Direction
219 227 218 190 173 170 162 151 109 171 166 158 211 180 200 131 157 181 219 54 261 280 97 25 85 98 111 155 160 50 44 102 75 94 298 308 171 286 86 111 294 44 125 274
220 219 210 185 172 177 160 140 115 170 177 172 192 150 149 180 155 216 172 186 332 327 75 97 105 93 9 97 43 46 353 78 90 26 342 342 282 238 17 44 61 188 122 251
229 215 204 187 176 172 158 139 130 160 200 247 206 156 163 151 169 161 168 152 229 238 88 84 105 89 94 49 80 36 27 121 154 176 209 151 182 201 188 115 111 212 204 129
221 219 197 172 176 171 166 166 183 173 178 230 216 268 154 147 150 193 201 195 224 227 95 94 94 73 86 31 20 19 76 108 82 82 62 88 137 190 194 183 189 157 227 204
217 214 183 170 171 177 188 162 156 171 172 177 157 236 200 156 108 130 208 181 84 94 94 174 134 154 170 149 311 5 33 75 87 344 37 48 351 271 233 210 186 237 242 274
204 208 186 170 174 182 181 179 166 175 165 149 125 202 169 142 123 68 61 120 101 87 135 87 110 140 136 153 152 149 102 118 80 250 358 22 324 244 265 198 111 201 220 94
201 198 183 171 183 185 185 178 169 130 183 155 174 143 123 117 102 125 51 84 97 144 143 101 97 103 88 74 57 70 100 97 105 187 45 46 253 355 66 102 54 48 73 65
200 190 189 175 187 189 192 185 179 156 122 156 148 126 114 98 91 78 80 61 117 139 120 80 79 30 49 35 36 22 112 132 111 122 185 215 295 24 70 114 46 18 63 24
209 187 174 178 188 188 200 197 187 147 122 345 170 115 143 132 116 73 88 102 144 137 121 111 146 168 159 145 36 339 21 91 113 141 149 213 324 0 359 53 335 20 30 21
196 186 170 180 186 188 193 193 185 157 104 41 91 100 148 138 119 110 128 143 145 180 85 108 136 206 140 146 150 184 82 19 152 264 232 40 328 313 335 138 229 26 28 7
185 177 170 180 185 194 190 186 181 166 110 63 102 125 131 131 115 132 158 102 15 66 122 124 209 120 213 108 166 174 159 146 207 110 154 239 325 42 163 164 73 19 349 337
182 173 167 181 189 197 196 188 174 154 111 107 104 106 101 114 121 125 124 113 110 144 96 75 113 113 87 152 194 331 164 179 153 152 192 168 81 111 102 86 55 353 343 340
181 170 168 177 184 185 183 173 159 154 109 92 102 70 88 119 132 144 135 148 149 131 100 137 160 114 122 154 202 123 110 118 140 131 302 126 119 97 61 17 10 348 322 318
169 165 164 165 172 172 175 173 160 146 118 103 56 69 88 92 124 139 132 137 134 129 92 80 106 131 176 203 169 157 183 136 156 87 77 128 106 60 32 43 7 3 353 342
165 155 157 165 170 170 172 172 158 160 132 126 128 83 74 90 113 131 131 135 132 104 74 57 141 148 104 5 62 261 188 178 163 218 165 167 161 356 10 357 353 353 343 343
161 156 163 170 167 163 162 127 162 173 127 107 98 87 80 89 97 113 121 124 104 90 85 99 96 101 128 108 198 263 139 124 132 158 170 263 274 341 343 342 340 337 341 344
156 157 159 151 159 159 178 176 158 154 134 110 111 78 102 94 81 82 77 85 76 73 89 70 124 93 98 116 209 171 136 135 122 95 62 94 200 324 331 329 330 334 335 338
159 155 147 143 160 172 129 134 145 144 113 94 101 317 102 108 76 71 55 66 67 53 83 94 86 87 24 257 239 141 132 130 107 88 24 3 329 328 332 335 338 333 333 333
151 140 139 128 130 130 130 121 123 114 95 108 101 130 183 128 106 85 77 60 64 53 78 82 107 230 239 229 183 147 145 146 150 95 30 14 347 336 332 331 329 324 327 331
147 134 135 140 148 134 124 117 115 86 56 67 90 117 104 142 145 102 108 5 84 84 189 97 141 261 247 112 141 140 139 124 105 39 4 344 340 331 326 322 319 320 323 325
148 163 138 140 139 142 115 97 67 70 47 63 98 112 123 129 114 130 112 138 129 147 294 141 234 252 94 134 125 125 124 107 29 348 329 322 315 315 314 312 311 313 316 323
149 151 134 134 142 95 84 28 17 65 171 127 116 120 114 117 120 109 166 113 155 162 167 206 242 187 146 150 144 146 146 318 321 319 317 317 316 315 308 304 304 306 309 318
130 123 143 148 127 50 125 169 279 115 170 156 146 115 111 106 105 91 101 100 162 135 197 234 224 170 172 168 164 175 309 319 326 325 321 321 320 322 315 309 309 307 309 315
147 149 104 143 273 234 177 158 146 128 148 139 126 103 110 123 101 146 94 158 142 69 1 237 229 181 174 181 209 289 316 321 321 324 322 325 325 321 318 315 315 315 312 314
140 125 145 171 123 93 107 112 116 124 142 132 110 84 98 61 91 118 97 46 235 199 229 230 185 177 183 205 264 301 311 318 318 319 322 324 327 324 319 317 313 312 311 312
87 84 93 129 99 91 105 119 122 140 135 112 86 100 70 52 132 88 197 126 213 247 217 178 170 184 208 251 290 301 310 316 324 332 331 326 321 316 312 313 317 320 321 316
65 49 118 120 105 133 145 149 147 147 127 111 116 83 182 106 59 130 185 198 215 190 169 179 196 219 255 278 284 292 305 317 326 329 328 322 323 322 321 322 327 326 323 322
Height
1412 1419 1426 1430 1440 1449 1454 1456 1462 1467 1469 1471 1468 1469 1466 1467 1471 1471 1471 1471 1470 1469 1465 1469 1473 1478 1476 1475 1476 1477 1477 1487 1494 1497 1494 1493 1493 1491 1491 1510 1506 1508 1516 1509
1410 1412 1419 1425 1432 1442 1448 1453 1460 1465 1467 1469 1464 1462 1464 1466 1469 1469 1470 1470 1470 1468 1469 1474 1471 1475 1476 1476 1477 1480 1480 1490 1501 1505 1500 1493 1494 1491 1490 1495 1500 1509 1518 1507
1405 1407 1413 1419 1428 1439 1446 1450 1459 1463 1465 1463 1462 1461 1465 1466 1466 1467 1467 1468 1469 1466 1470 1471 1475 1479 1478 1478 1480 1480 1479 1487 1496 1502 1491 1491 1496 1491 1492 1499 1516 1502 1504 1496
1397 1402 1409 1415 1425 1435 1442 1444 1449 1450 1457 1459 1457 1456 1459 1464 1465 1465 1467 1468 1470 1469 1474 1473 1478 1480 1481 1481 1481 1481 1482 1493 1495 1488 1486 1487 1487 1490 1492 1499 1497 1504 1497 1497
1395 1397 1405 1410 1421 1433 1437 1439 1441 1447 1447 1449 1453 1455 1456 1460 1462 1465 1466 1466 1468 1468 1475 1475 1478 1479 1478 1479 1483 1483 1484 1500 1493 1504 1489 1490 1491 1490 1489 1491 1493 1494 1495 1496
1393 1392 1400 1407 1416 1426 1431 1434 1437 1440 1445 1448 1452 1455 1454 1457 1460 1466 1466 1466 1470 1474 1475 1473 1474 1476 1478 1479 1482 1484 1486 1497 1508 1510 1496 1497 1504 1494 1490 1487 1486 1489 1495 1498
1389 1390 1396 1403 1414 1422 1427 1430 1435 1437 1447 1446 1448 1450 1453 1457 1460 1464 1467 1466 1469 1475 1475 1476 1478 1480 1481 1482 1482 1484 1489 1495 1507 1517 1505 1519 1496 1489 1489 1493 1497 1495 1497 1499
1390 1389 1393 1402 1412 1421 1426 1430 1434 1435 1444 1444 1446 1449 1454 1459 1462 1465 1468 1470 1471 1474 1475 1481 1486 1488 1487 1489 1489 1488 1487 1493 1504 1510 1517 1498 1492 1491 1491 1491 1501 1500 1499 1499
1394 1394 1393 1403 1413 1421 1426 1430 1433 1435 1438 1449 1449 1450 1455 1461 1465 1469 1472 1472 1473 1474 1476 1479 1485 1493 1485 1494 1490 1487 1489 1491 1499 1504 1504 1498 1495 1494 1492 1491 1506 1504 1502 1502
1388 1392 1394 1403 1411 1418 1426 1429 1432 1434 1440 1448 1448 1452 1457 1458 1462 1468 1471 1472 1474 1475 1478 1482 1486 1493 1481 1492 1493 1493 1495 1497 1504 1506 1510 1501 1499 1496 1493 1501 1513 1507 1505 1506
1387 1391 1395 1403 1410 1417 1425 1429 1431 1433 1439 1450 1450 1453 1456 1458 1460 1467 1470 1472 1475 1476 1478 1481 1485 1486 1484 1485 1485 1488 1493 1502 1500 1502 1499 1505 1496 1495 1497 1505 1505 1505 1504 1504
1387 1391 1397 1403 1410 1416 1424 1428 1431 1433 1437 1453 1455 1456 1459 1460 1462 1465 1469 1471 1471 1473 1475 1479 1482 1484 1485 1487 1491 1484 1491 1490 1496 1497 1499 1495 1496 1497 1501 1502 1503 1503 1502 1500
1386 1392 1398 1404 1410 1416 1423 1427 1430 1434 1444 1456 1459 1461 1463 1463 1464 1465 1468 1471 1471 1472 1473 1475 1479 1482 1486 1487 1488 1485 1487 1488 1490 1492 1497 1497 1496 1499 1499 1499 1499 1499 1497 1495
1387 1393 1399 1404 1411 1418 1423 1427 1431 1435 1442 1454 1466 1464 1465 1466 1466 1467 1468 1469 1471 1473 1474 1476 1479 1482 1483 1485 1484 1485 1486 1487 1489 1494 1495 1494 1495 1496 1495 1495 1494 1493 1492 1490
1388 1394 1399 1405 1413 1419 1425 1430 1433 1435 1439 1451 1464 1467 1468 1468 1468 1469 1469 1470 1471 1474 1476 1478 1482 1481 1483 1484 1485 1487 1482 1485 1490 1489 1488 1490 1492 1492 1492 1493 1492 1490 1488 1486
1388 1394 1401 1407 1416 1422 1428 1434 1437 1437 1437 1444 1464 1471 1471 1471 1471 1471 1472 1472 1473 1475 1477 1481 1482 1483 1485 1489 1490 1481 1480 1482 1483 1485 1488 1489 1491 1492 1491 1490 1490 1488 1486 1484
1390 1398 1405 1410 1417 1424 1426 1427 1430 1436 1437 1441 1462 1471 1473 1473 1474 1474 1475 1476 1476 1477 1480 1482 1483 1484 1484 1485 1486 1478 1481 1482 1483 1486 1488 1490 1490 1491 1490 1489 1487 1484 1482 1480
1395 1400 1407 1416 1423 1426 1426 1428 1432 1436 1437 1441 1459 1473 1474 1475 1475 1477 1477 1477 1478 1481 1483 1484 1484 1485 1486 1487 1480 1480 1482 1483 1485 1486 1487 1488 1490 1490 1489 1486 1483 1481 1478 1475
1397 1405 1414 1420 1424 1427 1429 1431 1434 1436 1440 1442 1453 1467 1478 1475 1477 1478 1479 1480 1483 1484 1484 1485 1487 1487 1489 1479 1480 1481 1481 1482 1485 1485 1486 1485 1485 1484 1482 1481 1479 1476 1472 1469
1403 1411 1415 1420 1423 1427 1430 1435 1435 1436 1439 1444 1455 1461 1470 1474 1476 1480 1482 1482 1482 1489 1487 1487 1487 1485 1479 1478 1479 1481 1481 1483 1484 1484 1484 1482 1481 1479 1478 1476 1474 1472 1470 1466
1406 1411 1415 1418 1424 1427 1430 1432 1435 1440 1448 1450 1457 1460 1466 1472 1476 1479 1481 1482 1484 1483 1488 1488 1484 1482 1481 1481 1481 1482 1482 1483 1483 1482 1482 1481 1479 1476 1474 1472 1470 1468 1466 1463
1405 1409 1415 1422 1425 1427 1430 1441 1440 1442 1450 1452 1456 1460 1464 1470 1473 1477 1481 1484 1485 1481 1486 1485 1481 1480 1480 1481 1481 1482 1483 1483 1482 1481 1479 1479 1477 1474 1471 1468 1466 1464 1462 1458
1405 1410 1415 1420 1426 1432 1437 1442 1445 1448 1444 1448 1452 1459 1463 1470 1474 1476 1478 1486 1489 1485 1485 1483 1479 1475 1478 1479 1480 1481 1481 1480 1479 1477 1476 1473 1471 1470 1466 1463 1461 1458 1455 1452
1402 1405 1419 1422 1428 1424 1421 1424 1428 1433 1437 1443 1448 1455 1462 1468 1473 1475 1484 1480 1482 1491 1497 1486 1472 1471 1474 1476 1477 1478 1477 1475 1474 1471 1469 1467 1465 1462 1460 1458 1456 1452 1448 1444
1400 1402 1417 1420 1419 1420 1422 1423 1427 1433 1439 1443 1448 1456 1462 1468 1473 1474 1479 1487 1495 1487 1480 1472 1467 1470 1472 1474 1474 1473 1472 1470 1468 1467 1465 1463 1461 1458 1455 1453 1449 1447 1442 1436
1400 1406 1415 1418 1419 1423 1424 1427 1431 1437 1441 1444 1447 1458 1468 1472 1472 1479 1484 1486 1488 1475 1468 1466 1468 1469 1470 1471 1470 1469 1468 1466 1465 1463 1462 1459 1457 1453 1449 1445 1441 1437 1433 1428
1403 1409 1409 1414 1415 1418 1423 1428 1433 1438 1440 1445 1450 1462 1468 1469 1477 1476 1473 1476 1466 1462 1464 1466 1467 1468 1467 1467 1466 1466 1465 1463 1461 1459 1456 1454 1452 1447 1443 1439 1434 1430 1426 1422